Location: Celina Elementary School
(33.3262°N, 96.7767°W)
Time: 09:17:31
(UTC+00:00)

COSMOS 2406 - Pass Details

Date: 26 November 2021
Orbit: 844 x 863 km, 71.0° (Epoch: 19 January)

Event Time Altitude Azimuth Distance (km) Brightness Sun altitude
Exits shadow 12:33:09 - 314° (NW) 2,760 5.3 -7.7°
Reaches altitude 10° 12:34:08 10° 308° (NW) 2,469 5.0 -7.5°
Maximum altitude 12:38:19 22° 259° (W) 1,776 4.4 -6.7°
Drops below altitude 10° 12:42:30 10° 211° (SSW) 2,454 5.5 -5.9°
Sets 12:45:28 0° 196° (SSW) 3,384 6.4 -5.3°
